KK4WXG Weather Reports


time (UTC)temp
C
wind
direction
speed
KPH
gust
KPH
rain 1hr
cm
rain 24hr
cm
rain mn
cm
humidity
%
barometer
mb
20260507160600 17 352 8.0 9.7 0.00 0.00 0.00 38 1011.1
20260507160056 16 51 3.2 8.0 0.00 0.00 0.00 37 1011.2
20260507155552 16 24 3.2 12.9 0.00 0.00 0.00 41 1011.2
20260507155049 17 43 12.9 14.5 0.00 0.00 0.00 40 1011.1
20260507154546 17 33 9.7 9.7 0.00 0.00 0.00 43 1011.1
20260507154043 16 23 3.2 9.7 0.00 0.00 0.00 40 1011.1
20260507153540 16 311 6.4 16.1 0.00 0.00 0.00 40 1011.5
20260507153036 16 9 3.2 6.4 0.00 0.00 0.00 46 1011.3
20260507152532 16 88 4.8 6.4 0.00 0.00 0.00 43 1011.6
20260507152028 16 94 8.0 14.5 0.00 0.00 0.00 44 1011.5
20260507151524 16 43 4.8 9.7 0.00 0.00 0.00 47 1011.5
20260507151022 16 219 3.2 9.7 0.00 0.00 0.00 43 1011.6
20260507150518 15 344 3.2 20.9 0.00 0.00 0.00 46 1011.8
20260507150015 15 320 9.7 20.9 0.00 0.00 0.00 42 1011.9
20260507145510 15 349 4.8 6.4 0.00 0.00 0.00 47 1012.1
20260507145008 15 56 3.2 6.4 0.00 0.00 0.00 44 1012.2
20260507144504 13 40 3.2 8.0 0.00 0.00 0.00 45 1012.3
20260507144001 13 31 3.2 9.7 0.00 0.00 0.00 45 1012.3
20260507143459 13 304 1.6 9.7 0.00 0.00 0.00 45 1012.2
20260507142956 14 28 4.8 9.7 0.00 0.00 0.00 47 1012.3
20260507142451 14 353 3.2 8.0 0.00 0.00 0.00 44 1012.6
20260507141948 13 343 4.8 12.9 0.00 0.00 0.00 44 1012.6
20260507141444 13 353 1.6 4.8 0.00 0.00 0.00 50 1012.8
20260507140941 13 36 0.0 8.0 0.00 0.00 0.00 45 1012.7
20260507140438 13 79 4.8 8.0 0.00 0.00 0.00 48 1012.7
20260507135936 13 58 14.5 14.5 0.00 0.00 0.00 45 1012.8
20260507135432 13 48 3.2 11.3 0.00 0.00 0.00 48 1012.8
20260507134930 13 356 3.2 6.4 0.00 0.00 0.00 47 1013.0
20260507134426 13 57 4.8 4.8 0.00 0.00 0.00 52 1012.8
20260507133922 13 347 4.8 8.0 0.00 0.00 0.00 48 1013.0
20260507133419 13 327 3.2 3.2 0.00 0.00 0.00 53 1013.0
20260507132917 12 39 4.8 16.1 0.00 0.00 0.00 47 1013.1
20260507132413 12 251 1.6 4.8 0.00 0.00 0.00 51 1013.4
20260507131909 12 21 1.6 6.4 0.00 0.00 0.00 51 1013.1
20260507131406 12 297 0.0 8.0 0.00 0.00 0.00 52 1013.2
20260507130903 12 336 0.0 4.8 0.00 0.00 0.00 55 1013.1
20260507130400 12 40 3.2 6.4 0.00 0.00 0.00 53 1013.1
20260507125859 12 43 4.8 8.0 0.00 0.00 0.00 52 1013.1
20260507125356 12 290 8.0 9.7 0.00 0.00 0.00 52 1013.0
20260507124854 12 308 6.4 8.0 0.00 0.00 0.00 54 1013.4
20260507124349 12 295 3.2 6.4 0.00 0.00 0.00 53 1013.3
20260507123848 12 293 6.4 9.7 0.00 0.00 0.00 52 1013.1
20260507123345 12 291 3.2 4.8 0.00 0.00 0.00 54 1013.1
20260507122842 12 68 0.0 3.2 0.00 0.00 0.00 55 1013.1
20260507122337 12 181 1.6 6.4 0.00 0.00 0.00 57 1013.1
20260507121834 12 48 4.8 6.4 0.00 0.00 0.00 53 1013.1
20260507121329 12 120 3.2 8.0 0.00 0.00 0.00 55 1012.9
20260507120826 11 273 0.0 8.0 0.00 0.00 0.00 55 1013.0
20260507120322 11 352 4.8 6.4 0.00 0.00 0.00 54 1012.7
20260507115818 11 45 3.2 6.4 0.00 0.00 0.00 56 1012.8
20260507115314 11 91 3.2 6.4 0.00 0.00 0.00 55 1012.8
20260507114810 11 98 1.6 3.2 0.00 0.00 0.00 55 1012.9
20260507114308 11 58 8.0 8.0 0.00 0.00 0.00 54 1012.6
20260507113805 11 65 1.6 4.8 0.00 0.00 0.00 56 1012.6
20260507113301 11 349 0.0 8.0 0.00 0.00 0.00 57 1012.5
20260507112759 11 100 4.8 6.4 0.00 0.00 0.00 56 1012.5
20260507112256 11 84 3.2 6.4 0.00 0.00 0.00 57 1012.8
20260507111754 11 327 0.0 3.2 0.00 0.00 0.00 59 1012.7
20260507111250 11 60 3.2 4.8 0.00 0.00 0.00 57 1012.8
20260507110746 11 70 0.0 3.2 0.00 0.00 0.00 56 1012.6
20260507110243 11 81 1.6 6.4 0.00 0.00 0.00 54 1012.6
20260507105740 11 63 3.2 6.4 0.00 0.00 0.00 56 1012.6
20260507105236 11 60 3.2 6.4 0.00 0.00 0.00 55 1012.8
20260507104733 11 116 3.2 3.2 0.00 0.00 0.00 56 1012.5
20260507104230 11 113 4.8 4.8 0.00 0.00 0.00 55 1012.4
20260507103726 11 122 3.2 6.4 0.00 0.00 0.00 55 1012.2
20260507103222 11 82 3.2 8.0 0.00 0.00 0.00 54 1012.2
20260507102719 11 153 1.6 6.4 0.00 0.00 0.00 53 1012.2
20260507102215 11 0 6.4 9.7 0.00 0.00 0.00 54 1011.9
20260507101712 11 66 3.2 9.7 0.00 0.00 0.00 54 1012.1
20260507101207 11 55 3.2 6.4 0.00 0.00 0.00 55 1012.1
20260507100704 11 47 4.8 8.0 0.00 0.00 0.00 55 1012.1
20260507100203 11 85 6.4 8.0 0.00 0.00 0.00 56 1011.8
20260507095701 11 52 3.2 8.0 0.00 0.00 0.00 57 1011.8
20260507095156 11 37 3.2 4.8 0.00 0.00 0.00 56 1011.7
20260507094653 11 47 8.0 12.9 0.00 0.00 0.00 55 1011.3
20260507094150 12 346 6.4 6.4 0.00 0.00 0.00 56 1011.4
20260507093648 12 37 3.2 9.7 0.00 0.00 0.00 56 1011.4
20260507093146 12 60 4.8 8.0 0.00 0.00 0.00 58 1011.1
20260507092643 12 61 11.3 14.5 0.00 0.00 0.00 59 1011.3
20260507092139 12 79 6.4 8.0 0.00 0.00 0.00 62 1011.3
20260507091635 12 83 8.0 11.3 0.00 0.00 0.00 63 1011.6
20260507091131 12 62 8.0 9.7 0.00 0.00 0.00 65 1011.4
20260507090627 12 21 6.4 6.4 0.00 0.00 0.00 66 1011.4
20260507090125 12 336 3.2 6.4 0.00 0.00 0.00 66 1011.3
20260507085622 12 0 1.6 8.0 0.00 0.00 0.00 67 1011.3
20260507085118 12 41 3.2 8.0 0.00 0.00 0.00 68 1011.4
20260507084615 12 43 3.2 6.4 0.00 0.00 0.00 69 1011.6
20260507084112 12 20 4.8 9.7 0.00 0.00 0.00 69 1011.3
20260507083609 12 58 3.2 6.4 0.00 0.00 0.00 71 1011.4
20260507083106 12 30 0.0 4.8 0.00 0.00 0.00 71 1011.4
20260507082601 12 324 4.8 6.4 0.00 0.00 0.00 72 1011.3
20260507082058 12 91 1.6 3.2 0.00 0.00 0.00 73 1011.1
20260507081554 12 22 0.0 4.8 0.00 0.00 0.00 72 1011.3
20260507081051 12 77 3.2 4.8 0.00 0.00 0.00 72 1011.1
20260507080547 12 41 3.2 6.4 0.00 0.00 0.00 72 1011.0
20260507080044 12 40 3.2 6.4 0.00 0.00 0.00 72 1010.9
20260507075539 12 66 3.2 8.0 0.00 0.00 0.00 72 1010.8
20260507075036 12 339 3.2 8.0 0.00 0.00 0.00 72 1010.7
20260507074533 12 60 1.6 6.4 0.00 0.00 0.00 73 1010.6
20260507074031 12 63 3.2 8.0 0.00 0.00 0.00 72 1011.1
20260507073527 12 96 0.0 6.4 0.00 0.00 0.00 72 1010.9
20260507073023 12 62 9.7 11.3 0.00 0.00 0.00 71 1010.9
20260507072521 12 0 6.4 8.0 0.00 0.00 0.00 72 1010.8
20260507072018 12 62 6.4 14.5 0.00 0.00 0.00 72 1010.7
20260507071515 12 68 4.8 8.0 0.00 0.00 0.00 72 1010.7
20260507071012 12 5 4.8 4.8 0.00 0.00 0.00 73 1010.9
20260507070509 12 84 1.6 6.4 0.00 0.00 0.00 72 1010.9
20260507070010 12 67 3.2 8.0 0.00 0.00 0.00 72 1011.0
20260507065502 12 34 0.0 4.8 0.00 0.00 0.00 72 1010.7
20260507065000 12 50 3.2 8.0 0.00 0.00 0.00 72 1011.0
20260507064458 13 72 6.4 6.4 0.00 0.00 0.00 71 1011.1
20260507063955 13 39 1.6 11.3 0.00 0.00 0.00 70 1011.1
20260507063452 13 36 3.2 9.7 0.00 0.00 0.00 71 1011.1
20260507062949 13 16 6.4 9.7 0.00 0.00 0.00 71 1011.3
20260507062446 13 356 9.7 9.7 0.00 0.00 0.00 71 1011.2
20260507061943 13 22 3.2 11.3 0.00 0.00 0.00 71 1011.2
20260507061442 13 40 0.0 20.9 0.00 0.00 0.00 71 1011.3
20260507060940 13 38 8.0 11.3 0.00 0.00 0.00 71 1011.4
20260507060436 13 56 4.8 9.7 0.00 0.00 0.00 71 1011.2
20260507055933 13 30 4.8 8.0 0.00 0.00 0.00 71 1011.2
20260507055428 13 55 6.4 8.0 0.00 0.00 0.00 71 1011.5
20260507054925 13 9 3.2 8.0 0.00 0.00 0.00 71 1011.2
20260507054421 13 31 4.8 6.4 0.00 0.00 0.00 71 1010.9
20260507053919 13 84 3.2 8.0 0.00 0.00 0.00 71 1011.1
20260507053416 13 88 3.2 4.8 0.00 0.00 0.00 71 1011.1
20260507052915 13 48 4.8 8.0 0.00 0.00 0.00 71 1011.0
20260507052412 13 69 6.4 9.7 0.00 0.00 0.00 71 1010.7
20260507051909 13 52 4.8 6.4 0.00 0.00 0.00 72 1010.9
20260507051407 13 66 3.2 4.8 0.00 0.00 0.00 74 1011.2
20260507050903 13 23 0.0 4.8 0.00 0.00 0.00 74 1011.2
20260507050359 13 21 0.0 6.4 0.00 0.00 0.00 75 1010.9
20260507045857 13 300 1.6 4.8 0.00 0.00 0.00 76 1011.0
20260507045353 13 80 0.0 3.2 0.00 0.00 0.00 78 1011.1
20260507044850 13 43 3.2 9.7 0.00 0.00 0.00 77 1011.1
20260507044347 13 240 1.6 6.4 0.00 0.00 0.00 78 1010.9
20260507043842 13 4 3.2 8.0 0.00 0.00 0.00 78 1010.6
20260507043340 13 2 6.4 11.3 0.00 0.00 0.00 78 1010.6
20260507042836 13 30 6.4 8.0 0.00 0.00 0.00 78 1011.1
20260507042332 13 49 6.4 12.9 0.00 0.00 0.00 78 1011.1
20260507041828 13 38 3.2 8.0 0.00 0.00 0.00 78 1011.1
20260507041325 13 247 4.8 19.3 0.00 0.00 0.00 78 1011.0
20260507040822 14 12 3.2 6.4 0.00 0.00 0.00 78 1010.7
20260507040318 14 357 4.8 4.8 0.00 0.00 0.00 78 1010.4
20260507035814 14 9 11.3 12.9 0.00 0.51 0.51 77 1010.7
20260507035310 14 17 3.2 8.0 0.00 0.51 0.51 77 1010.8
20260507034808 14 72 4.8 9.7 0.00 0.51 0.51 78 1010.7
20260507034304 14 315 3.2 11.3 0.00 0.51 0.51 77 1010.4
20260507033803 14 359 3.2 6.4 0.00 0.51 0.51 77 1010.6
20260507033300 15 31 6.4 9.7 0.00 0.51 0.51 77 1010.5
20260507032757 15 349 3.2 14.5 0.00 0.51 0.51 76 1010.4
20260507032253 15 36 8.0 14.5 0.00 0.51 0.51 76 1010.5
20260507031749 15 31 4.8 12.9 0.00 0.51 0.51 77 1010.4
20260507031247 15 101 3.2 6.4 0.00 0.51 0.51 77 1010.6
20260507030743 15 76 9.7 11.3 0.00 0.51 0.51 77 1010.5
20260507030240 15 35 1.6 4.8 0.00 0.51 0.51 77 1010.6
20260507025738 15 338 3.2 6.4 0.00 0.51 0.51 76 1010.5
20260507025235 15 57 4.8 6.4 0.00 0.51 0.51 76 1010.3
20260507024733 15 60 3.2 8.0 0.00 0.51 0.51 75 1010.2
20260507024230 15 336 1.6 9.7 0.00 0.51 0.51 75 1010.2
20260507023725 15 6 6.4 11.3 0.00 0.51 0.51 75 1010.0
20260507023222 15 310 16.1 16.1 0.00 0.51 0.51 74 1010.1
20260507022720 15 323 8.0 17.7 0.00 0.51 0.51 74 1010.2
20260507022216 15 322 4.8 12.9 0.00 0.51 0.51 75 1010.1
20260507021712 15 309 3.2 9.7 0.00 0.51 0.51 76 1010.0
20260507021207 15 355 8.0 8.0 0.00 0.51 0.51 76 1010.0
20260507020706 15 326 11.3 16.1 0.00 0.51 0.51 76 1009.9
20260507020202 15 338 3.2 8.0 0.00 0.51 0.51 77 1009.8
20260507015700 15 351 3.2 12.9 0.00 0.51 0.51 76 1009.9
20260507015157 15 355 4.8 11.3 0.00 0.51 0.51 79 1010.0
20260507014653 15 24 3.2 8.0 0.00 0.51 0.51 80 1010.1
20260507014150 15 71 1.6 8.0 0.00 0.51 0.51 81 1010.4
20260507013647 15 0 3.2 8.0 0.00 0.51 0.51 81 1010.0
20260507013144 15 73 4.8 6.4 0.00 0.51 0.51 81 1010.1
20260507012642 15 99 4.8 6.4 0.00 0.51 0.51 81 1009.8
20260507012136 16 62 3.2 4.8 0.00 0.51 0.51 80 1009.7
20260507011635 16 122 3.2 6.4 0.00 0.51 0.51 80 1009.6
20260507011131 16 52 1.6 8.0 0.00 0.51 0.51 80 1009.6
20260507010626 16 93 3.2 12.9 0.05 0.51 0.51 81 1009.7
20260507010122 16 3 3.2 14.5 0.05 0.51 0.51 83 1009.5
20260507005619 16 110 3.2 20.9 0.00 0.51 0.51 83 1009.8
20260507005115 16 346 6.4 16.1 0.00 0.51 0.51 83 1009.9
20260507004612 16 32 11.3 19.3 0.13 0.51 0.51 83 1009.8
20260507004110 17 342 3.2 14.5 0.13 0.51 0.51 82 1009.8
20260507003606 17 14 4.8 9.7 0.00 0.48 0.48 78 1009.7
20260507003101 17 354 0.0 8.0 0.00 0.48 0.48 79 1010.0
20260507002558 17 348 4.8 16.1 0.00 0.48 0.48 79 1009.6
20260507002053 17 338 4.8 17.7 0.00 0.48 0.48 79 1009.8
20260507001550 18 358 4.8 8.0 0.00 0.48 0.48 79 1009.6
20260507001048 18 27 3.2 6.4 0.00 0.48 0.48 79 1009.4
20260507000544 18 43 4.8 8.0 0.00 0.48 0.48 80 1009.4
20260507000039 18 301 6.4 8.0 0.00 0.48 0.48 81 1009.4
20260506235537 18 236 1.6 6.4 0.00 0.48 0.48 81 1009.2
20260506235032 18 15 3.2 4.8 0.00 0.48 0.48 81 1009.0
20260506234531 18 30 1.6 6.4 0.00 0.48 0.48 80 1008.9
20260506234027 18 330 4.8 11.3 0.00 0.48 0.48 80 1008.8
20260506233524 18 308 6.4 11.3 0.00 0.48 0.48 79 1008.9
20260506233021 18 306 6.4 8.0 0.00 0.48 0.48 80 1008.5
20260506232517 19 333 6.4 12.9 0.00 0.48 0.48 80 1008.2
20260506232012 19 352 0.0 8.0 0.00 0.48 0.48 81 1008.2
20260506231510 19 5 3.2 16.1 0.00 0.48 0.48 80 1008.2
20260506231008 19 353 6.4 11.3 0.00 0.48 0.48 82 1008.2
20260506230504 20 298 3.2 6.4 0.00 0.48 0.48 83 1008.1
20260506230001 20 258 3.2 6.4 0.00 0.48 0.48 82 1008.3
20260506225458 20 340 3.2 3.2 0.00 0.48 0.48 82 1008.0
20260506224954 20 225 4.8 4.8 0.00 0.48 0.48 81 1008.1
20260506224452 20 232 0.0 3.2 0.00 0.48 0.48 80 1008.1
20260506223948 20 209 4.8 6.4 0.00 0.48 0.48 78 1008.0
20260506223444 20 248 3.2 6.4 0.00 0.48 0.48 79 1008.0
20260506222941 20 195 6.4 8.0 0.00 0.48 0.48 79 1007.8
20260506222438 20 211 6.4 6.4 0.00 0.48 0.48 79 1008.1
20260506221935 21 215 9.7 12.9 0.00 0.48 0.48 78 1007.8
20260506221432 21 209 6.4 8.0 0.00 0.48 0.48 77 1008.0
20260506220930 21 209 8.0 9.7 0.00 0.48 0.48 76 1008.1
20260506220425 21 196 4.8 9.7 0.00 0.48 0.48 76 1007.6
20260506215921 20 198 3.2 11.3 0.00 0.48 0.48 79 1007.7
20260506215418 20 205 9.7 16.1 0.00 0.48 0.48 77 1007.8
20260506214914 20 202 3.2 9.7 0.00 0.48 0.48 79 1007.8
20260506214411 20 207 8.0 12.9 0.00 0.48 0.48 78 1007.6
20260506213908 20 221 4.8 11.3 0.00 0.48 0.48 78 1008.1
20260506213406 20 224 8.0 9.7 0.00 0.48 0.48 79 1007.9
20260506212903 20 227 9.7 9.7 0.00 0.48 0.48 80 1007.9
20260506212359 20 203 3.2 4.8 0.00 0.48 0.48 79 1007.7
20260506211853 20 263 8.0 8.0 0.00 0.48 0.48 79 1007.7
20260506211350 20 221 8.0 8.0 0.00 0.48 0.48 79 1007.4
20260506210847 20 200 8.0 11.3 0.00 0.48 0.48 79 1007.5
20260506210344 20 168 4.8 8.0 0.00 0.48 0.48 80 1007.2
20260506205841 20 199 4.8 6.4 0.00 0.48 0.48 81 1007.4
20260506205337 20 248 8.0 8.0 0.00 0.48 0.48 80 1007.7
20260506204834 20 232 1.6 6.4 0.00 0.48 0.48 80 1007.6
20260506204331 20 237 3.2 4.8 0.00 0.48 0.48 81 1007.3
20260506203829 20 204 3.2 6.4 0.00 0.48 0.48 81 1007.2
20260506203326 20 211 9.7 14.5 0.00 0.48 0.48 80 1007.2
20260506202823 19 195 3.2 6.4 0.00 0.48 0.48 81 1007.4
20260506202320 19 193 3.2 9.7 0.00 0.48 0.48 81 1007.2
20260506201816 19 212 9.7 14.5 0.00 0.48 0.48 80 1007.4
20260506201314 20 211 12.9 19.3 0.00 0.48 0.48 79 1007.5
20260506200811 20 202 8.0 9.7 0.00 0.48 0.48 79 1007.2
20260506200307 20 193 3.2 8.0 0.00 0.48 0.48 80 1007.3
20260506195803 20 179 4.8 6.4 0.00 0.48 0.48 80 1007.3
20260506195300 20 225 9.7 17.7 0.00 0.48 0.48 78 1007.6
20260506194757 20 206 16.1 17.7 0.00 0.48 0.48 78 1007.2
20260506194253 20 204 3.2 9.7 0.00 0.48 0.48 78 1007.5
20260506193751 20 197 9.7 14.5 0.00 0.48 0.48 77 1007.2
20260506193248 20 202 9.7 16.1 0.00 0.48 0.48 76 1007.2
20260506192744 20 203 9.7 17.7 0.00 0.48 0.48 76 1007.2
20260506192241 20 205 4.8 9.7 0.00 0.48 0.48 78 1007.4
20260506191738 20 208 8.0 16.1 0.00 0.48 0.48 75 1007.4
20260506191234 21 185 11.3 17.7 0.00 0.48 0.48 75 1007.6
20260506190732 21 180 4.8 8.0 0.00 0.48 0.48 76 1007.4
20260506190228 21 202 6.4 14.5 0.00 0.48 0.48 76 1007.4
20260506185725 21 202 16.1 20.9 0.00 0.48 0.48 76 1007.3
20260506185221 21 220 16.1 17.7 0.00 0.48 0.48 76 1007.2
20260506184719 20 205 11.3 16.1 0.00 0.48 0.48 77 1007.4
20260506184216 20 208 16.1 20.9 0.00 0.48 0.48 76 1007.7
20260506183713 20 185 8.0 16.1 0.00 0.48 0.48 78 1007.6
20260506183209 20 162 8.0 12.9 0.00 0.48 0.48 79 1007.9
20260506182706 19 212 8.0 12.9 0.00 0.48 0.48 80 1007.9
20260506182203 19 219 14.5 22.5 0.00 0.48 0.48 79 1007.8
20260506181701 19 205 16.1 24.1 0.00 0.48 0.48 79 1008.0
20260506181158 19 203 12.9 24.1 0.00 0.48 0.48 79 1007.7
20260506180655 19 198 9.7 19.3 0.00 0.48 0.48 80 1007.8
20260506180151 18 191 8.0 16.1 0.00 0.48 0.48 81 1007.9
20260506175647 18 194 8.0 14.5 0.00 0.48 0.48 81 1007.8
20260506175144 18 221 9.7 17.7 0.00 0.48 0.48 81 1007.9
20260506174637 18 208 17.7 25.7 0.00 0.48 0.48 81 1008.1
20260506174134 18 193 14.5 25.7 0.00 0.48 0.48 80 1007.8
20260506173631 18 218 11.3 24.1 0.00 0.48 0.48 81 1008.0
20260506173128 18 213 9.7 25.7 0.00 0.48 0.48 81 1008.1
20260506172625 18 217 12.9 29.0 0.00 0.48 0.48 81 1008.1
20260506172121 18 209 12.9 19.3 0.00 0.48 0.48 81 1007.9
20260506171619 18 210 16.1 29.0 0.00 0.48 0.48 80 1007.9
20260506171117 18 213 9.7 20.9 0.00 0.48 0.48 82 1008.1
20260506170615 18 201 14.5 29.0 0.00 0.48 0.48 80 1008.0
20260506170111 18 190 11.3 19.3 0.00 0.48 0.48 83 1008.0
20260506165609 18 195 11.3 32.2 0.00 0.48 0.48 82 1008.0
20260506165106 18 208 19.3 30.6 0.00 0.48 0.48 83 1007.8
20260506164603 18 213 14.5 33.8 0.00 0.48 0.48 83 1008.1
20260506164100 18 194 14.5 29.0 0.00 0.48 0.48 82 1008.0
20260506163555 18 218 19.3 20.9 0.00 0.48 0.48 84 1008.1
20260506163051 18 211 14.5 29.0 0.00 0.48 0.48 85 1008.0
20260506162548 18 199 6.4 30.6 0.00 0.48 0.48 85 1008.0
20260506162045 17 213 19.3 30.6 0.00 0.48 0.48 84 1007.8
20260506161543 17 197 8.0 29.0 0.00 0.48 0.48 85 1008.1
20260506161039 17 201 11.3 20.9 0.00 0.48 0.48 87 1008.1